This demonstration page uses our WeatherBlox Daily Observations layout. Learn more.

Left ArrowRight Arrow

34.16533, -84.80231

Hourly Observations for August 21, 2017

Temp ( °F °C ) Dew Point ( °F °C ) Humidity (%) Winds ( mph kmh ) Pressure ( in mb ) Visibility ( mi km ) Precip ( " mm )
12:53 am 00:53 Clear 72 22.2 72 22.2 100 100 Calm 30.11 1020 10 16 0.00 0.00
1:53 am 01:53 Clear 70 21.1 70 21.1 100 100 Calm 30.11 1020 10 16 0.00 0.00
2:53 am 02:53 Clear 70 21.1 70 21.1 100 100 Calm 30.11 1020 10 16 0.00 0.00
3:53 am 03:53 Clear 69 20.6 69 20.6 100 100 Calm 30.11 1020 10 16 0.00 0.00
4:53 am 04:53 Clear 70 21.1 70 21.1 100 100 Calm 30.12 1020 9 14 0.00 0.00
5:53 am 05:53 Clear 70 21.1 70 21.1 100 100 SE 5 7 30.13 1020 10 16 0.00 0.00
6:53 am 06:53 Clear 70 21.1 70 21.1 100 100 Calm 30.14 1021 10 16 0.00 0.00
7:53 am 07:53 Sunny 72 22.2 72 22.2 100 100 Calm 30.15 1021 9 14 0.00 0.00
8:53 am 08:53 Sunny 76 24.4 73 22.8 91 91 Calm 30.16 1022 10 16 0.00 0.00
9:53 am 09:53 Sunny 82 27.8 75 23.9 79 79 N 3 6 30.17 1022 10 16 0.00 0.00
10:53 am 10:53 Sunny 86 30 73 22.8 65 65 NE 5 7 30.17 1022 10 16 0.00 0.00
11:53 am 11:53 Sunny 88 31.1 71 21.7 57 57 Calm 30.17 1022 10 16 0.00 0.00
12:53 pm 12:53 Mostly Sunny 90 32.2 71 21.7 54 54 VRB 6 9 30.15 1021 10 16 0.00 0.00
1:53 pm 13:53 Sunny 91 32.8 68 20 47 47 VRB 3 6 30.14 1021 10 16 0.00 0.00
2:53 pm 14:53 Sunny 82 27.8 75 23.9 79 79 Calm 30.12 1020 10 16 0.00 0.00
3:53 pm 15:53 Sunny 91 32.8 69 20.6 49 49 ENE 5 7 30.10 1019 10 16 0.00 0.00
4:53 pm 16:53 Mostly Sunny 89 31.7 70 21.1 53 53 SSE 5 7 30.10 1019 10 16 0.00 0.00
5:53 pm 17:53 Mostly Sunny 91 32.8 70 21.1 50 50 SSE 7 11 30.09 1019 10 16 0.00 0.00
6:53 pm 18:53 Sunny 89 31.7 72 22.2 57 57 SSE 3 6 30.09 1019 10 16 0.00 0.00
7:53 pm 19:53 Sunny 84 28.9 74 23.3 72 72 SSW 3 6 30.09 1019 10 16 0.00 0.00
8:53 pm 20:53 Clear 80 26.7 74 23.3 82 82 S 5 7 30.10 1019 10 16 0.00 0.00
9:53 pm 21:53 Clear 77 25 75 23.9 94 94 Calm 30.12 1020 10 16 0.00 0.00
10:53 pm 22:53 Clear 76 24.4 74 23.3 94 94 Calm 30.13 1020 10 16 0.00 0.00
11:53 pm 23:53 Clear 73 22.8 73 22.8 100 100 Calm 30.14 1021 10 16 0.00 0.00

Powered by AerisWeather